This is the latest recevied weather packets stored in our database for station/object KI5RAB. If no packets are shown the sender has not sent any weather packets the latest 10 day(s).
| Time | Temp. | Humidity | Pressure | Rain* | Wind** | Luminosity | Snow |
|---|---|---|---|---|---|---|---|
| 1787839766 | 28.33° C | 76% | 1020 hPa | 0 mm | - | 186 W/m² | - |
| 1787839460 | 28.33° C | 77% | 1019.9 hPa | 0 mm | - | 178 W/m² | - |
| 1787839160 | 27.78° C | 77% | 1019.9 hPa | 0 mm | - | 168 W/m² | - |
| 1787838859 | 27.78° C | 78% | 1019.7 hPa | 0 mm | - | 147 W/m² | - |
| 1787838555 | 27.78° C | 77% | 1019.8 hPa | 0 mm | - | 137 W/m² | - |
| 1787838253 | 28.33° C | 77% | 1019.8 hPa | 0 mm | - | 126 W/m² | - |
| 1787837952 | 27.78° C | 77% | 1019.7 hPa | 0 mm | - | 114 W/m² | - |
| 1787837652 | 27.78° C | 75% | 1019.7 hPa | 0 mm | - | 105 W/m² | - |
| 1787837346 | 27.78° C | 77% | 1019.5 hPa | 0 mm | - | 95 W/m² | - |
| 1787837042 | 27.78° C | 76% | 1019.6 hPa | 0 mm | - | 86 W/m² | - |
| 1787836741 | 27.78° C | 77% | 1019.5 hPa | 0 mm | - | 80 W/m² | - |
| 1787836436 | 27.22° C | 79% | 1019.5 hPa | 0 mm | - | 71 W/m² | - |
| 1787836132 | 26.67° C | 80% | 1019.4 hPa | 0 mm | - | 62 W/m² | - |
| 1787835827 | 26.11° C | 81% | 1019.6 hPa | 0 mm | - | 53 W/m² | - |
| 1787835526 | 25.56° C | 83% | 1019.4 hPa | 0 mm | - | 44 W/m² | - |
| 1787835222 | 25° C | 84% | 1019.5 hPa | 0 mm | - | 34 W/m² | - |
| 1787834921 | 24.44° C | 86% | 1019.4 hPa | 0 mm | - | 29 W/m² | - |
| 1787834621 | 24.44° C | 86% | 1019.4 hPa | 0 mm | - | 24 W/m² | - |
| 1787834315 | 24.44° C | 85% | 1019.5 hPa | 0 mm | - | 18 W/m² | - |
| 1787834011 | 24.44° C | 85% | 1019.4 hPa | 0 mm | - | 15 W/m² | - |
| 1787833706 | 24.44° C | 85% | 1019.3 hPa | 0 mm | - | 12 W/m² | - |
| 1787833402 | 24.44° C | 85% | 1019.1 hPa | 0 mm | - | 9 W/m² | - |
| 1787833097 | 24.44° C | 86% | 1019.1 hPa | 0 mm | - | 6 W/m² | - |
| 1787832793 | 24.44° C | 85% | 1018.9 hPa | 0 mm | - | 4 W/m² | - |
| 1787832488 | 24.44° C | 84% | 1019.3 hPa | 0 mm | - | 2 W/m² | - |
* Rain latest hour (hover to see other rain measurements)
** Current wind speed in m/s (hover to see current wind gust speed)